Flag for Russia Weather past 2 weeks in Ulyanovsk, Russia

Now
59 °F

Clear.


Feels Like: 59 °F
Forecast: 58 / 80 °F
Wind: No wind

Location: Ulyanovsk

Current Time: Aug 2, 2014 at 2:33:55 AM

Latest Report: Aug 2, 2014 at 2:00 AM


Visibility: N/A

Pressure: 30.07 "Hg

Humidity: 88%

Dew point: 55 °F

Location of UlyanovskLocation

Historic Weather in Ulyanovsk — Graph

°F

Ulyanovsk temperature yesterday

Maximum temperature yesterday: 79 °F (at 3:00 PM)
Minimum temperature yesterday: 61 °F (at 4:00 AM)
Average temperature yesterday: 70 °F

Past Weeks' High & Low Weather Summary

 TemperatureHumidityPressure
High91 °F (Jul 30, 1:00 PM)100% (Jul 25, 3:00 AM)30.12 "Hg (Jul 25, 3:00 AM)
Low46 °F (Jul 28, 1:00 AM)33% (Jul 28, 4:00 PM)29.71 "Hg (Jul 20, 6:00 PM)
Average66 °F65%29.94 "Hg
* Reported Jul 18 1:00 AM — Aug 2 1:00 AM, Ulyanovsk, Weather by CustomWeather, © 2014

Note: Actual official high and low records may vary slightly from our data, if they occured in-between our weather recording intervals... More about our weather records

Advertising

Ulyanovsk weather history for previous 24 hours

 ConditionsComfort  
Time TempWeatherWind HumidityBarometerVisibility
1:00 AM
Aug 2
59 °FClear.1 mph94%30.07 "HgN/A
12:00 AM61 °FClear.3 mph88%30.07 "HgN/A
11:00 PM
Aug 1
63 °FClear.No wind88%30.04 "HgN/A
10:00 PM64 °FClear.No wind83%30.04 "HgN/A
9:00 PM68 °FPassing clouds.1 mph69%30.04 "Hg5 mi
8:00 PM73 °FPassing clouds.3 mph53%30.04 "Hg5 mi
7:00 PM77 °FPassing clouds.8 mph51%30.01 "Hg5 mi
6:00 PM79 °FPassing clouds.6 mph48%30.01 "Hg5 mi
5:00 PM79 °FPassing clouds.6 mph48%30.04 "Hg5 mi
4:00 PM79 °FPassing clouds.10 mph48%30.04 "Hg5 mi
3:00 PM79 °FPassing clouds.6 mph42%30.04 "Hg5 mi
2:00 PM77 °FPassing clouds.6 mph47%30.04 "Hg5 mi
1:00 PM77 °FPassing clouds.6 mph51%30.04 "Hg5 mi
12:00 PM75 °FPassing clouds.8 mph57%30.07 "Hg5 mi
11:00 AM75 °FScattered clouds.3 mph61%30.07 "Hg5 mi
10:00 AM73 °FScattered clouds.No wind69%30.07 "Hg5 mi
9:00 AM72 °FScattered clouds.3 mph65%30.07 "Hg5 mi
8:00 AM70 °FPassing clouds.1 mph73%30.07 "Hg5 mi
7:00 AM64 °FPassing clouds.3 mph88%30.07 "Hg5 mi
6:00 AM61 °FPassing clouds.3 mph100%30.04 "Hg5 mi
5:00 AM61 °FPassing clouds.1 mph94%30.04 "Hg5 mi
4:00 AM61 °FClear.3 mph94%30.04 "HgN/A
3:00 AM63 °FClear.3 mph94%30.01 "HgN/A
2:00 AM64 °FClear.6 mph94%30.01 "HgN/A
Weather by CustomWeather, © 2014

See weather overviewHow to use our weather pages